DWI1734 MDSD-SKRG

Flight info

Callsign DWI1734
Flight time N/A
Altitude 38000
Route BEROX4J BEROX DCT AMBAS DCT VUP/N0386F240 W19 ELB DCT UGALU DCT BIVIG BIVIG3C
Aircraft B38M/M-SDE1FGHILORVWXY/HB1

Departure

Time 2026-05-04 21:27
Airport Las Américas International Airport (MDSD)

Arrival

Time N/A
Airport Jose Maria Córdova International Airport (SKRG)
Time Latitude Longitude Altitude Speed Heading
2026-05-04 21:13 18.42946 -69.67438 70 ft 0 kts 251°
2026-05-04 21:18 18.42948 -69.67433 63 ft 3 kts 251°
2026-05-04 21:18 18.42954 -69.67414 63 ft 3 kts 251°
2026-05-04 21:18 18.42958 -69.67394 59 ft 3 kts 272°
2026-05-04 21:18 18.42954 -69.67375 64 ft 2 kts 301°
2026-05-04 21:19 18.42952 -69.67373 65 ft 0 kts 301°
2026-05-04 21:22 18.42954 -69.67376 64 ft 4 kts 301°
2026-05-04 21:22 18.42964 -69.67393 60 ft 0 kts 301°
2026-05-04 21:22 18.42969 -69.67396 68 ft 2 kts 331°
2026-05-04 21:23 18.43027 -69.67423 64 ft 16 kts 335°
2026-05-04 21:23 18.43166 -69.67478 66 ft 24 kts 340°
2026-05-04 21:23 18.43324 -69.67536 67 ft 19 kts 341°
2026-05-04 21:23 18.43435 -69.67527 63 ft 17 kts 352°
2026-05-04 21:24 18.43546 -69.67568 70 ft 17 kts 339°
2026-05-04 21:24 18.43663 -69.67616 66 ft 19 kts 338°
2026-05-04 21:24 18.43792 -69.67671 66 ft 21 kts 338°
2026-05-04 21:24 18.43936 -69.67731 71 ft 23 kts 339°
2026-05-04 21:25 18.44053 -69.67773 69 ft 15 kts 341°
2026-05-04 21:25 18.44130 -69.67754 71 ft 12 kts 57°
2026-05-04 21:25 18.44167 -69.67669 67 ft 14 kts 66°
2026-05-04 21:25 18.44202 -69.67589 64 ft 5 kts 60°
2026-05-04 21:26 18.44199 -69.67555 69 ft 6 kts 102°
2026-05-04 21:26 18.44189 -69.67529 65 ft 0 kts 146°
2026-05-04 21:26 18.44185 -69.67527 64 ft 2 kts 159°
2026-05-04 21:26 18.44004 -69.67468 72 ft 63 kts 162°
2026-05-04 21:27 18.43374 -69.67238 68 ft 127 kts 160°
2026-05-04 21:27 18.42375 -69.66905 160 ft 167 kts 164°
2026-05-04 21:27 18.41248 -69.66458 730 ft 179 kts 158°
2026-05-04 21:27 18.40092 -69.65959 1519 ft 184 kts 158°
2026-05-04 21:28 18.38836 -69.65439 2074 ft 205 kts 159°
2026-05-04 21:28 18.37410 -69.64868 2555 ft 232 kts 159°
2026-05-04 21:28 18.35823 -69.64452 3259 ft 248 kts 172°
2026-05-04 21:28 18.34065 -69.64212 4085 ft 257 kts 171°
2026-05-04 21:29 18.32279 -69.63961 5076 ft 262 kts 171°
2026-05-04 21:29 18.30458 -69.63702 6028 ft 266 kts 170°
2026-05-04 21:29 18.28600 -69.63436 6907 ft 271 kts 170°
2026-05-04 21:29 18.26716 -69.63165 7771 ft 276 kts 171°
2026-05-04 21:30 18.24792 -69.62888 8639 ft 281 kts 171°
2026-05-04 21:30 18.22848 -69.62606 9537 ft 284 kts 171°
2026-05-04 21:30 18.20871 -69.62320 10331 ft 291 kts 172°
2026-05-04 21:30 18.18803 -69.62020 10758 ft 309 kts 172°
2026-05-04 21:31 18.14367 -69.61750 11873 ft 329 kts 192°
2026-05-04 21:31 18.12117 -69.62318 12660 ft 334 kts 192°
2026-05-04 21:31 18.09828 -69.62835 13350 ft 340 kts 192°
2026-05-04 21:32 18.07496 -69.63346 14088 ft 344 kts 192°
2026-05-04 21:32 18.05137 -69.63854 14751 ft 348 kts 192°
2026-05-04 21:32 18.02748 -69.64362 15399 ft 352 kts 192°
2026-05-04 21:32 18.00320 -69.64875 16037 ft 357 kts 193°
2026-05-04 21:33 17.97901 -69.65386 16673 ft 361 kts 193°
2026-05-04 21:33 17.95427 -69.65907 17299 ft 365 kts 193°
2026-05-04 21:33 17.92921 -69.66436 17922 ft 369 kts 193°
2026-05-04 21:33 17.90392 -69.66969 18490 ft 373 kts 193°
2026-05-04 21:34 17.87831 -69.67507 19027 ft 376 kts 193°
2026-05-04 21:34 17.85254 -69.68050 19571 ft 379 kts 193°
2026-05-04 21:34 17.82655 -69.68597 20107 ft 381 kts 193°
2026-05-04 21:34 17.80039 -69.69148 20633 ft 384 kts 193°
2026-05-04 21:35 17.77408 -69.69701 21153 ft 387 kts 193°
2026-05-04 21:35 17.74755 -69.70259 21668 ft 390 kts 193°
2026-05-04 21:35 17.72118 -69.70814 22166 ft 393 kts 193°
2026-05-04 21:35 17.69389 -69.71387 22673 ft 396 kts 193°
2026-05-04 21:36 17.66710 -69.71951 23170 ft 399 kts 193°
2026-05-04 21:36 17.63980 -69.72524 23644 ft 402 kts 193°
2026-05-04 21:36 17.61227 -69.73102 24035 ft 405 kts 193°
2026-05-04 21:36 17.58454 -69.73684 24440 ft 407 kts 193°
2026-05-04 21:37 17.55666 -69.74270 24835 ft 410 kts 193°
2026-05-04 21:37 17.52860 -69.74858 25230 ft 413 kts 193°
2026-05-04 21:37 17.50952 -69.75259 25487 ft 414 kts 193°
2026-05-04 21:37 17.48118 -69.75853 25861 ft 417 kts 193°
2026-05-04 21:38 17.45260 -69.76452 26248 ft 420 kts 193°
2026-05-04 21:38 17.42393 -69.77053 26625 ft 422 kts 193°
2026-05-04 21:38 17.39538 -69.77651 26992 ft 425 kts 193°
2026-05-04 21:38 17.36631 -69.78260 27350 ft 427 kts 193°
2026-05-04 21:39 17.33673 -69.78880 27709 ft 430 kts 193°
2026-05-04 21:39 17.30769 -69.79488 28065 ft 432 kts 193°
2026-05-04 21:39 17.27805 -69.80108 28408 ft 435 kts 193°
2026-05-04 21:39 17.24835 -69.80729 28757 ft 437 kts 193°
2026-05-04 21:40 17.21848 -69.81354 29079 ft 439 kts 193°
2026-05-04 21:40 17.18838 -69.81983 29412 ft 442 kts 193°
2026-05-04 21:40 17.15817 -69.82614 29725 ft 444 kts 193°
2026-05-04 21:40 17.12782 -69.83249 30033 ft 446 kts 193°
2026-05-04 21:41 17.09723 -69.83887 30303 ft 449 kts 193°
2026-05-04 21:41 17.06655 -69.84528 30577 ft 450 kts 193°
2026-05-04 21:41 17.03574 -69.85171 30852 ft 452 kts 193°
2026-05-04 21:41 17.00483 -69.85816 31107 ft 454 kts 193°
2026-05-04 21:42 16.97373 -69.86465 31367 ft 456 kts 193°
2026-05-04 21:42 16.94259 -69.87114 31626 ft 457 kts 193°
2026-05-04 21:42 16.91127 -69.87767 31884 ft 459 kts 193°
2026-05-04 21:42 16.87986 -69.88421 32143 ft 461 kts 193°
2026-05-04 21:43 16.84834 -69.89078 32395 ft 463 kts 193°
2026-05-04 21:43 16.81664 -69.89738 32636 ft 465 kts 193°
2026-05-04 21:43 16.78534 -69.90389 32879 ft 466 kts 193°
2026-05-04 21:43 16.75341 -69.91054 33130 ft 468 kts 193°
2026-05-04 21:44 16.72142 -69.91719 33368 ft 470 kts 193°
2026-05-04 21:44 16.68930 -69.92387 33604 ft 471 kts 193°
2026-05-04 21:44 16.65698 -69.93059 33840 ft 473 kts 193°
2026-05-04 21:44 16.62543 -69.93714 34103 ft 473 kts 193°
2026-05-04 21:45 16.59289 -69.94391 34378 ft 473 kts 193°
2026-05-04 21:45 16.56033 -69.95067 34661 ft 471 kts 193°
2026-05-04 21:45 16.52854 -69.95727 34956 ft 470 kts 193°
2026-05-04 21:45 16.49646 -69.96393 35244 ft 470 kts 193°
2026-05-04 21:46 16.46439 -69.97058 35521 ft 469 kts 193°
2026-05-04 21:46 16.43247 -69.97720 35791 ft 468 kts 194°
2026-05-04 21:46 16.40053 -69.98382 36057 ft 468 kts 194°
2026-05-04 21:46 16.36861 -69.99044 36331 ft 467 kts 194°
2026-05-04 21:47 16.33681 -69.99703 36597 ft 466 kts 194°
2026-05-04 21:47 16.30502 -70.00362 36863 ft 465 kts 194°
2026-05-04 21:47 16.27328 -70.01019 37116 ft 465 kts 194°
2026-05-04 21:47 16.24153 -70.01675 37378 ft 464 kts 194°
2026-05-04 21:48 16.20987 -70.02330 37643 ft 463 kts 194°
2026-05-04 21:48 16.17833 -70.02982 37883 ft 462 kts 194°
2026-05-04 21:48 16.14672 -70.03636 38004 ft 462 kts 194°
2026-05-04 21:49 16.08391 -70.04934 37978 ft 459 kts 194°
2026-05-04 21:49 16.02119 -70.06234 37975 ft 459 kts 195°
2026-05-04 21:49 15.99140 -70.07302 37958 ft 451 kts 211°
2026-05-04 21:50 15.96376 -70.08836 37970 ft 452 kts 210°
2026-05-04 21:50 15.90815 -70.11914 37973 ft 453 kts 211°
2026-05-04 21:51 15.85322 -70.15024 37970 ft 452 kts 211°
2026-05-04 21:51 15.79803 -70.18162 37970 ft 452 kts 211°
2026-05-04 21:52 15.74278 -70.21302 37964 ft 452 kts 211°
2026-05-04 21:52 15.68756 -70.24438 37968 ft 452 kts 211°
2026-05-04 21:53 15.63226 -70.27577 37962 ft 453 kts 211°
2026-05-04 21:53 15.57698 -70.30712 37963 ft 453 kts 211°
2026-05-04 21:54 15.52157 -70.33853 37959 ft 453 kts 211°
2026-05-04 21:54 15.46617 -70.36992 37961 ft 453 kts 211°
2026-05-04 21:55 15.41118 -70.40106 37962 ft 453 kts 211°
2026-05-04 21:55 15.35567 -70.43247 37959 ft 454 kts 211°
2026-05-04 21:56 15.30017 -70.46385 37957 ft 454 kts 211°
2026-05-04 21:56 15.24477 -70.49516 37954 ft 454 kts 211°
2026-05-04 21:57 15.18933 -70.52648 37951 ft 454 kts 211°
2026-05-04 21:57 15.13419 -70.55760 37950 ft 453 kts 211°
2026-05-04 21:58 15.07880 -70.58885 37951 ft 453 kts 211°
2026-05-04 21:58 15.02341 -70.62008 37950 ft 453 kts 211°
2026-05-04 21:59 14.96802 -70.65129 37945 ft 453 kts 211°
2026-05-04 21:59 14.91263 -70.68248 37946 ft 453 kts 211°
2026-05-04 22:00 14.85733 -70.71361 37947 ft 452 kts 211°
2026-05-04 22:00 14.80233 -70.74454 37940 ft 452 kts 211°
2026-05-04 22:01 14.74707 -70.77561 37940 ft 452 kts 211°
2026-05-04 22:01 14.69176 -70.80668 37940 ft 452 kts 211°
2026-05-04 22:02 14.63647 -70.83773 37941 ft 452 kts 211°
2026-05-04 22:02 14.58107 -70.86881 37941 ft 452 kts 211°
2026-05-04 22:03 14.52576 -70.89983 37936 ft 452 kts 211°
2026-05-04 22:03 14.47080 -70.93065 37931 ft 452 kts 211°
2026-05-04 22:04 14.41545 -70.96166 37932 ft 451 kts 211°
2026-05-04 22:04 14.36018 -70.99259 37937 ft 451 kts 211°
2026-05-04 22:05 14.30528 -71.02332 37930 ft 451 kts 211°
2026-05-04 22:05 14.25014 -71.05415 37924 ft 451 kts 210°
2026-05-04 22:06 14.19497 -71.08499 37925 ft 451 kts 210°
2026-05-04 22:06 14.13984 -71.11579 37922 ft 450 kts 210°
2026-05-04 22:07 14.08478 -71.14653 37923 ft 450 kts 210°
2026-05-04 22:07 14.03004 -71.17707 37916 ft 450 kts 210°
2026-05-04 22:08 13.97499 -71.20777 37915 ft 450 kts 210°
2026-05-04 22:08 13.92000 -71.23843 37921 ft 450 kts 210°
2026-05-04 22:09 13.90181 -71.24856 37916 ft 449 kts 210°